| time (UTC) | temp F | wind direction | speed knots | gust knots | rain 1hr in | rain 24hr in | rain mn in | humidity % | barometer mb |
| 20260508070031 | 33 | 75 | 0.0 | 0.0 | 0.00 | 0.00 | 0.00 | 70 | 1016.7 |
| 20260508064538 | 34 | 75 | 0.0 | 0.0 | 0.00 | 0.00 | 0.00 | 70 | 1016.7 |
| 20260508063030 | 33 | 75 | 0.0 | 0.0 | 0.00 | 0.00 | 0.00 | 69 | 1016.8 |
| 20260508061529 | 34 | 75 | 0.0 | 1.7 | 0.00 | 0.00 | 0.00 | 69 | 1016.8 |
| 20260508054524 | 35 | 252 | 0.0 | 0.0 | 0.00 | 0.00 | 0.00 | 66 | 1016.8 |
| 20260508053028 | 35 | 252 | 0.0 | 0.0 | 0.00 | 0.00 | 0.00 | 65 | 1016.9 |
| 20260508051524 | 35 | 252 | 0.0 | 0.0 | 0.00 | 0.00 | 0.00 | 66 | 1016.9 |
| 20260508050026 | 36 | 255 | 0.0 | 0.0 | 0.00 | 0.00 | 0.00 | 64 | 1016.8 |
| 20260508044523 | 37 | 255 | 0.0 | 0.0 | 0.00 | 0.00 | 0.00 | 63 | 1016.9 |
| 20260508043022 | 38 | 255 | 0.0 | 0.0 | 0.00 | 0.00 | 0.00 | 60 | 1017.0 |
| 20260508041521 | 39 | 255 | 0.0 | 0.0 | 0.00 | 0.00 | 0.00 | 59 | 1017.0 |
| 20260508040024 | 40 | 255 | 0.0 | 0.9 | 0.00 | 0.00 | 0.00 | 56 | 1017.0 |
| 20260508034523 | 41 | 276 | 0.0 | 1.7 | 0.00 | 0.00 | 0.00 | 56 | 1017.0 |
| 20260508033023 | 42 | 250 | 0.0 | 0.0 | 0.00 | 0.00 | 0.00 | 53 | 1017.0 |
| 20260508031526 | 43 | 34 | 0.0 | 0.0 | 0.00 | 0.00 | 0.00 | 49 | 1016.8 |
| 20260508030019 | 44 | 266 | 0.0 | 0.0 | 0.00 | 0.00 | 0.00 | 46 | 1016.8 |
| 20260508024518 | 46 | 274 | 0.0 | 0.0 | 0.00 | 0.00 | 0.00 | 44 | 1016.5 |
| 20260508023026 | 48 | 102 | 0.0 | 0.9 | 0.00 | 0.00 | 0.00 | 40 | 1016.3 |
| 20260508021517 | 48 | 134 | 0.0 | 2.6 | 0.00 | 0.00 | 0.00 | 39 | 1016.2 |
| 20260508020016 | 49 | 148 | 0.0 | 2.6 | 0.00 | 0.00 | 0.00 | 40 | 1016.3 |
| 20260508014533 | 50 | 135 | 0.0 | 0.9 | 0.00 | 0.00 | 0.00 | 38 | 1016.3 |
| 20260508013015 | 51 | 191 | 0.0 | 2.6 | 0.00 | 0.00 | 0.00 | 37 | 1016.2 |
| 20260508011518 | 52 | 176 | 0.0 | 4.3 | 0.00 | 0.00 | 0.00 | 35 | 1016.1 |
| 20260508010023 | 55 | 147 | 0.0 | 4.3 | 0.00 | 0.00 | 0.00 | 30 | 1016.0 |
| 20260508004520 | 57 | 146 | 1.7 | 7.0 | 0.00 | 0.00 | 0.00 | 28 | 1016.1 |
| 20260508003033 | 58 | 236 | 1.7 | 6.1 | 0.00 | 0.00 | 0.00 | 27 | 1016.3 |
| 20260508001509 | 59 | 153 | 2.6 | 6.1 | 0.00 | 0.00 | 0.00 | 25 | 1016.3 |
| 20260508000009 | 60 | 190 | 1.7 | 5.2 | 0.00 | 0.00 | 0.00 | 26 | 1016.5 |
| 20260507234506 | 59 | 213 | 1.7 | 5.2 | 0.00 | 0.00 | 0.00 | 25 | 1016.6 |
| 20260507233006 | 58 | 169 | 1.7 | 4.3 | 0.00 | 0.00 | 0.00 | 27 | 1016.8 |
| 20260507231504 | 61 | 235 | 2.6 | 7.0 | 0.00 | 0.00 | 0.00 | 25 | 1016.8 |
| 20260507230004 | 59 | 190 | 0.9 | 7.0 | 0.00 | 0.00 | 0.00 | 26 | 1016.9 |
| 20260507224505 | 61 | 187 | 1.7 | 6.1 | 0.00 | 0.00 | 0.00 | 23 | 1017.1 |
| 20260507223001 | 61 | 212 | 1.7 | 7.0 | 0.00 | 0.00 | 0.00 | 22 | 1017.0 |
| 20260507221559 | 61 | 225 | 1.7 | 8.7 | 0.00 | 0.00 | 0.00 | 21 | 1017.2 |
| 20260507220058 | 59 | 252 | 0.9 | 7.0 | 0.00 | 0.00 | 0.00 | 22 | 1017.4 |
| 20260507214603 | 60 | 262 | 0.9 | 7.0 | 0.00 | 0.04 | 0.00 | 23 | 1017.6 |
| 20260507213054 | 59 | 136 | 1.7 | 6.1 | 0.00 | 0.04 | 0.00 | 22 | 1018.0 |
| 20260507211615 | 60 | 217 | 1.7 | 5.2 | 0.00 | 0.04 | 0.00 | 26 | 1018.3 |
| 20260507210053 | 60 | 221 | 2.6 | 5.2 | 0.00 | 0.04 | 0.00 | 24 | 1018.7 |
| 20260507204556 | 61 | 259 | 0.9 | 3.5 | 0.00 | 0.17 | 0.00 | 24 | 1018.9 |
| 20260507203044 | 59 | 217 | 1.7 | 7.0 | 0.00 | 0.17 | 0.00 | 24 | 1019.3 |
| 20260507201541 | 59 | 280 | 0.9 | 4.3 | 0.00 | 0.17 | 0.00 | 23 | 1019.6 |
| 20260507200039 | 59 | 217 | 1.7 | 7.0 | 0.00 | 0.17 | 0.00 | 25 | 1020.0 |
| 20260507194539 | 59 | 214 | 2.6 | 10.4 | 0.00 | 0.30 | 0.00 | 23 | 1020.2 |
| 20260507193036 | 58 | 166 | 1.7 | 6.1 | 0.00 | 0.30 | 0.00 | 22 | 1020.6 |
| 20260507191533 | 58 | 270 | 3.5 | 7.0 | 0.00 | 0.30 | 0.00 | 22 | 1020.8 |
| 20260507190035 | 58 | 268 | 0.0 | 3.5 | 0.00 | 0.30 | 0.00 | 22 | 1021.2 |
| 20260507184527 | 58 | 304 | 0.9 | 5.2 | 0.00 | 0.30 | 0.00 | 21 | 1021.4 |
| 20260507183027 | 56 | 158 | 0.9 | 4.3 | 0.00 | 0.30 | 0.00 | 22 | 1021.8 |
| 20260507181522 | 57 | 142 | 0.9 | 7.0 | 0.00 | 0.30 | 0.00 | 23 | 1021.9 |
| 20260507180021 | 56 | 162 | 0.9 | 5.2 | 0.00 | 0.30 | 0.00 | 25 | 1022.5 |
| 20260507174517 | 55 | 252 | 0.9 | 6.1 | 0.00 | 0.30 | 0.00 | 21 | 1022.6 |
| 20260507173016 | 55 | 221 | 0.0 | 4.3 | 0.00 | 0.30 | 0.00 | 22 | 1022.7 |
| 20260507171512 | 53 | 200 | 0.0 | 3.5 | 0.00 | 0.30 | 0.00 | 19 | 1023.1 |
| 20260507170009 | 52 | 205 | 0.0 | 2.6 | 0.00 | 0.30 | 0.00 | 22 | 1023.4 |
| 20260507164505 | 50 | 196 | 0.0 | 1.7 | 0.00 | 0.30 | 0.00 | 23 | 1023.7 |
| 20260507163003 | 49 | 269 | 0.0 | 2.6 | 0.00 | 0.30 | 0.00 | 18 | 1024.0 |
| 20260507161601 | 46 | 248 | 0.0 | 0.0 | 0.00 | 0.30 | 0.00 | 23 | 1024.4 |
| 20260507160100 | 45 | 136 | 0.0 | 0.0 | 0.00 | 0.30 | 0.00 | 26 | 1024.7 |
| 20260507154551 | 42 | 108 | 0.0 | 0.0 | 0.00 | 0.30 | 0.00 | 28 | 1025.0 |